Погода в Бернаби

Канада     49°16′04″N   123°00′05″W
темп.,
°C
ветер,
м/с
пор.,
м/с
влажн.,
%
обл.,
%
осадки,
мм/ч
давл.,
гПа
погр.,
м
25 февраля, чт
чт2501:00+2всв3697100 2.1 1022338
04:000всв2499100 8.6 1018223
07:00+2ююв2899100 5.3 1017462
10:00+4юз129399 5.6 1015295
13:00+7зюз257698 0.2 1014648
16:00+7зюз377799 0.4 1013719
19:00+2зсз228862 0.1 101272
22:00+2з269232 0.1 1012195
26 февраля, пт
пт2601:00+1св129219 0.0 101129
04:00+2зсз259057 0.1 1011295
07:00−1ссв128728 0.0 101343
10:00+4вюв127621 0.0 1014415
13:00+7юз116771 0.1 1013843
16:00+6з126256 0.1 10131106
19:00+2ссв12835 0.0 101441
22:000ссв128212 0.0 101738
27 февраля, сб
сб2701:00−1ссв11800 0.0 101927
04:00−2св12790 0.0 102242
07:00−2св11780 0.0 102343
10:00+3вюв116519 0.0 1024448
13:00+6ююв126456 0.0 1024916
16:00+5ю127177 0.1 1024559
19:00+2св127999 0.1 102670
22:00+1св239399 0.1 1027158
28 февраля, вс
вс2801:00+1св2397100 0.6 1027132
04:00+2всв1297100 1.1 1027136
07:00+2всв1298100 0.4 102698
10:00+3в2392100 0.6 1025185
13:00+4в1294100 0.4 1024133
16:00+4всв1295100 0.6 1023138
19:00+4св2295100 0.1 102161
22:00+4св2296100 0.3 102268
1 марта, пн
пн101:00+4св229596 0.0 102051
04:00+5св229399 0.0 102041
07:00+5всв1193100 0.0 101925
10:00+7юв1184100 0.0 1018264
13:00+9ююв2474100 0.1 1017779
16:00+8юв137593 0.1 1016517
19:00+6в138599 0.0 1016124
22:00+6вюв119299 1.0 101860